Skip Page Navigation
NASA JPL Caltech
NASA Logo - Jet Propulsion Laboratory + View the NASA Portal
+ Center for Near-Earth Object Studies
JPL Home Earth Solar System Stars & Galaxies Technology
JPL Solar System Dynamics
BODIES ORBITS EPHEMERIDES TOOLS PHYSICAL DATA DISCOVERY FAQ SITE MAP
JPL Small-Body Database Browser
Search: [ help ]  
362907 (2012 CU24)
Classification: Main-belt Asteroid          SPK-ID: 2362907
Ephemeris | Orbit Diagram | Orbital Elements | Mission Design | Physical Parameters | Discovery Circumstances | Close-Approach Data ]

[ show orbit diagram ]
Orbital Elements at Epoch 2459396.5 (2021-Jul-01.0) TDB
Reference: JPL 14 (heliocentric ecliptic J2000)
 Element Value Uncertainty (1-sigma)   Units 
e .1318257647621683 5.4601e-08  
a 3.177519526772387 4.3615e-08 au
q 2.758640585108894 1.5594e-07 au
i 4.279584330109077 5.9813e-06 deg
node 244.2869918044044 0.00011226 deg
peri 20.00933377157037 0.00011757 deg
M 132.7603078430084 3.6161e-05 deg
tp 2458633.549224096539
(2019-May-30.04922410)
0.00020181 TDB
period 2068.858409473105
5.66
4.2597e-05
1.166e-07
d
yr
n .1740090082296567 3.5827e-09 deg/d
Q 3.59639846843588 4.9365e-08 au
  Orbit Determination Parameters
   # obs. used (total)      171  
   data-arc span      10224 days (27.99 yr)  
   first obs. used      1992-10-26  
   last obs. used      2020-10-23  
   planetary ephem.      DE441  
   SB-pert. ephem.      SB441-N16  
   condition code      0  
   norm. resid. RMS      .6087  
   source      ORB  
   producer      Otto Matic  
   solution date      2021-Apr-14 09:41:16  

Additional Information
 Earth MOID = 1.74345 au 
 Jupiter MOID = 1.47689 au 
 T_jup = 3.182 
[ show covariance matrix ]

Ephemeris | Orbit Diagram | Orbital Elements | Mission Design | Physical Parameters | Discovery Circumstances | Close-Approach Data ]

Physical Parameter Table
Parameter Symbol Value Units Sigma Reference Notes
absolute magnitude H 16.0   n/a MPO437531  

362907 (2012 CU24)          Discovered 2006-Jan-10 by Spacewatch at Kitt Peak
Reference: Last Updated: 2013-04-29

[ hide close-approach data ]
Close-Approach Data   ...sorted by Date/Time (TDB)
Date/Time (TDB) Time Uncertainty
(days_HH:MM)
Body Nominal Distance (au) Minimum Distance (au) Maximum Distance (au) V-relative (km/s) V-infinity (km/s) JD (TDB) Time Uncertainty (minutes) Semi-major axis (km) Semi-minor axis (km) range-LOV angle (deg) N-sigma BP Orbit Ref. Reference Modified
1931-Aug-26 14:48 00:07 Jupiter 1.93886370994223 1.93885939508398 1.938868024804 2.90246094602741 2.74782617735964 2426580.116403503 7.17578494045872 265.016243721626 59.3757267433719 -53.1005384836867 1178006.89075589 T 14 CATAB v2.0f-lin.ifort 2021-Apr-14 09:41:16 2021-Apr-14 09:41
1942-Aug-11 02:32 00:06 Jupiter 1.68327772899814 1.68327465706193 1.68328080093243 2.34667460010533 2.12143466919108 2430582.605705463 5.91142615750133 151.336077985282 81.3674208942408 59.0058159260808 820735.735987142 T 14 CATAB v2.0f-lin.ifort 2021-Apr-14 09:41:16 2021-Apr-14 09:41
1953-Aug-12 09:42 00:05 Jupiter 1.53872966391146 1.53872859040491 1.53873073742684 2.14169738294295 1.86706461824504 2434601.904379598 4.53729753872177 254.931055627118 41.4496129853483 87.4131093819103 2158418.42268861 T 14 CATAB v2.0f-lin.ifort 2021-Apr-14 09:41:16 2021-Apr-14 09:41
1964-Aug-12 07:38 00:04 Jupiter 1.57064847633422 1.57064748227911 1.57064947039166 2.19365844995551 1.93224566742345 2438619.817874831 3.54816046065863 181.566673105427 36.4037015787538 -80.5952201400288 1317467.45892004 T 14 CATAB v2.0f-lin.ifort 2021-Apr-14 09:41:16 2021-Apr-14 09:41
1975-Jul-18 12:07 00:03 Jupiter 1.76316438726052 1.76316287496601 1.76316589955664 2.74359815453677 2.56252467639519 2442612.005191214 2.74958582754025 139.475678500972 22.4795292161398 -73.38373881525 1347178.58366389 T 14 CATAB v2.0f-lin.ifort 2021-Apr-14 09:41:16 2021-Apr-14 09:41
2074-Apr-07 04:06 00:04 Jupiter 1.96906179852509 1.96905978037847 1.96906381667406 2.87664457019203 2.72300439299442 2478669.670601481 4.03295909843636 170.64887605135 43.119250964227 -67.4104099916067 1750231.45577433 T 14 CATAB v2.0f-lin.ifort 2021-Apr-14 09:41:16 2021-Apr-14 09:41
2085-Mar-23 05:21 00:05 Jupiter 1.71848650370957 1.71848451399798 1.71848849342028 2.31648388290423 2.09292146495953 2482672.723208870 4.90571724095328 107.557527688011 77.4008024612075 -87.2411747981677 1217469.24413409 T 14 CATAB v2.0f-lin.ifort 2021-Apr-14 09:41:16 2021-Apr-14 09:41
2096-Mar-23 07:23 00:06 Jupiter 1.5618064675037 1.56180559148607 1.56180734353066 2.15944276654638 1.89169839169405 2486690.807621113 5.8363082254801 264.320369724192 39.5253995611594 82.9832504993142 2043479.51977182 T 14 CATAB v2.0f-lin.ifort 2021-Apr-14 09:41:16 2021-Apr-14 09:41
2107-Mar-26 10:58 00:07 Jupiter 1.57143256568702 1.57143073608262 1.57143439531197 2.26400278701514 2.01188536184608 2490709.956650916 7.2543032888541 352.845141818326 28.9454300626667 -82.7627795152281 1263490.44671398 T 14 CATAB v2.0f-lin.ifort 2021-Apr-14 09:41:16 2021-Apr-14 09:41
2118-Mar-05 17:36 00:09 Jupiter 1.74778154313315 1.74777743964275 1.74778564665067 2.77562476305668 2.59515671674688 2494707.233654582 8.92956869109362 423.104693626686 25.24047061656 -71.5298806211499 1315251.1524922 T 14 CATAB v2.0f-lin.ifort 2021-Apr-14 09:41:16 2021-Apr-14 09:41

Alternate Designations
 2012 CU24 = 2007 EZ177 
Ephemeris | Orbit Diagram | Orbital Elements | Mission Design | Physical Parameters | Discovery Circumstances | Close-Approach Data ]
ABOUT SSD CREDITS/AWARDS PRIVACY/COPYRIGHT GLOSSARY LINKS
FirstGov 2021-Jul-27 00:30 UT
(server date/time)  
NASA Home Page
Site Manager:   Ryan S. Park
Webmaster  Alan B. Chamberlin